Dewpoint
14 16 15 15 15 11 11 12 10 12 12 11 11 11 13 13 13 16 15 14 16 15 14 14 13 12 12 12 13 13 14 14 13 10 10 11 12 12 12 10 11 10 12 13 12 12 8 8 13
16 15 14 13 13 10 12 10 11 12 12 12 12 12 12 14 13 14 13 15 16 15 15 15 13 13 12 12 12 11 13 13 12 13 12 12 12 12 11 9 11 9 9 9 8 7 7 8 9
16 15 14 12 10 12 13 11 12 12 11 11 12 10 10 12 12 12 14 15 15 15 15 14 12 12 12 12 12 12 13 12 12 14 13 13 13 12 11 11 12 13 13 14 11 12 11 11 12
14 14 14 12 12 12 11 11 10 10 10 11 10 10 12 12 12 12 13 14 15 15 15 14 13 12 12 11 12 12 11 11 11 11 14 14 13 12 13 13 12 12 12 12 12 13 13 12 12
14 12 13 11 12 11 10 9 9 10 10 9 7 9 10 11 11 11 13 13 14 14 15 13 11 12 12 12 12 11 11 11 12 13 14 14 13 12 13 14 11 12 12 13 13 13 13 13 14
12 13 13 11 13 12 10 9 8 8 8 7 8 8 10 10 10 11 12 13 13 13 13 11 12 12 13 12 12 10 10 12 12 13 13 14 13 13 13 13 10 11 12 12 12 12 13 14 13
11 12 12 11 12 13 11 9 7 6 7 7 7 7 9 9 10 11 12 13 13 11 11 11 12 12 12 11 11 12 12 13 13 14 13 12 13 11 10 10 10 12 12 11 12 13 14 13 12
13 13 13 11 12 13 10 8 7 7 7 9 8 8 9 10 10 12 12 13 13 12 12 11 11 12 11 11 10 11 12 13 13 13 12 12 12 12 8 8 7 8 8 11 12 13 13 11 11
13 14 15 12 12 13 10 8 10 10 8 10 12 8 8 11 12 12 12 13 13 14 13 12 10 11 10 10 10 9 11 13 13 12 11 14 14 14 16 12 5 6 8 11 11 12 11 11 10
11 14 15 13 12 13 11 8 10 8 9 11 10 9 10 12 12 12 12 12 13 14 14 15 12 13 9 11 10 10 13 13 13 15 15 14 15 14 13 8 5 5 4 5 9 11 10 12 12
12 14 14 14 13 13 11 10 10 9 9 9 10 10 11 12 13 12 11 11 12 13 14 15 13 14 15 12 13 14 12 14 15 14 15 15 14 13 13 14 15 15 12 14 14 14 13 14 14
14 12 13 14 13 13 12 11 10 9 10 9 10 10 11 12 12 11 12 11 12 14 14 14 14 14 14 14 14 14 13 14 13 15 13 15 13 14 14 14 14 15 15 15 16 13 14 15 14
12 13 14 14 14 13 13 11 11 10 11 9 10 11 11 12 12 12 11 12 12 13 14 14 15 15 15 15 14 14 14 13 14 14 10 14 13 15 15 14 16 16 16 15 16 15 14 15 15
12 13 14 14 13 13 12 12 10 11 10 10 10 11 11 11 12 13 13 12 12 12 13 14 15 14 14 14 15 15 14 14 15 14 14 9 15 16 16 16 16 16 16 16 16 15 15 14 13
13 14 13 12 13 13 12 13 12 11 11 9 10 11 11 12 12 13 13 13 13 12 13 14 14 13 9 14 14 15 15 14 14 14 12 11 15 12 13 15 16 15 13 13 15 15 14 13 13
12 13 15 13 13 12 12 15 12 12 11 9 9 11 11 12 12 13 13 13 13 13 14 14 13 13 13 15 15 15 15 15 15 15 15 14 11 10 13 15 15 13 15 16 15 14 14 14 12
11 13 13 15 13 12 11 14 11 12 11 10 9 10 11 12 12 13 13 13 14 14 14 15 14 14 14 13 15 15 15 14 15 14 14 13 13 11 13 13 14 12 14 16 15 14 14 14 14
10 10 12 13 13 13 13 10 10 11 12 10 9 10 11 11 12 12 13 13 14 14 15 14 14 15 15 14 12 15 14 14 14 14 14 12 15 11 12 13 12 11 14 15 15 13 14 13 14
8 8 11 12 12 12 13 11 10 10 12 11 10 9 10 11 11 12 12 13 14 14 14 15 14 15 14 15 14 14 13 14 14 15 13 11 12 10 12 12 11 10 11 13 13 15 14 14 14
7 7 10 13 13 12 12 12 11 13 12 12 11 10 10 9 10 11 12 13 13 14 14 14 14 14 12 15 15 14 14 14 15 15 14 15 11 13 13 13 12 10 11 8 11 13 14 14 13
4 4 8 10 12 12 12 12 13 11 9 11 11 11 10 10 10 10 12 12 13 14 15 14 12 13 12 14 15 13 15 15 15 14 15 16 12 14 12 12 11 11 11 15 13 13 12 14 15
1 1 5 10 10 10 11 13 12 12 12 11 11 11 11 11 10 10 11 12 12 13 15 14 12 12 13 12 15 15 14 13 14 14 15 15 12 13 14 10 9 10 12 12 14 15 14 13 15
1 5 7 8 6 6 10 9 12 11 13 12 11 11 11 11 11 10 11 12 12 13 14 14 11 11 14 12 14 14 14 14 15 14 15 15 14 13 14 11 11 11 15 14 13 16 14 16 15
5 7 8 8 6 7 6 4 7 9 10 11 11 11 11 11 11 11 11 12 12 13 14 14 13 11 11 11 12 13 15 15 15 15 15 15 15 16 14 13 11 13 13 13 14 13 13 14 14
4 3 7 8 9 7 7 5 4 8 10 10 10 11 12 12 12 12 12 12 13 13 14 15 15 12 12 12 11 12 13 13 15 15 14 15 14 14 16 13 13 15 13 12 13 14 16 17 16
1 1 1 4 2 3 8 5 5 6 10 11 11 11 12 12 12 12 12 12 13 13 14 15 16 15 13 12 11 11 13 15 15 15 14 15 14 14 15 15 15 14 13 14 14 17 17 17 17
2 1 -4 -2 -2 0 2 3 3 7 9 9 9 10 12 13 13 12 13 13 13 13 14 15 15 16 16 15 13 12 12 12 15 16 16 15 16 15 17 16 16 16 14 13 15 16 15 16 17
-1 -1 -0 -0 4 5 3 4 3 5 8 8 9 11 13 13 14 14 14 13 13 13 14 15 15 16 16 16 16 15 15 12 15 15 14 16 16 15 16 13 14 16 15 15 14 17 16 16 17
0 -1 -1 -2 1 3 4 2 4 6 8 9 10 10 11 12 13 14 15 14 14 14 14 14 15 15 16 16 16 16 16 16 16 16 15 14 14 14 14 13 13 13 15 14 13 14 14 16 17
4 0 0 1 5 4 4 3 4 7 8 9 10 10 11 11 13 14 15 15 15 14 15 14 14 15 15 16 16 16 16 16 16 16 16 14 13 14 13 15 14 14 14 15 14 14 16 17 17
Wind_Speed
3 3 4 3 6 2 9 7 4 7 5 5 7 4 7 10 6 3 9 8 13 13 13 13 12 15 14 12 13 13 13 12 13 12 10 10 12 12 13 13 12 11 12 11 11 10 11 15 14
5 2 2 5 5 5 9 7 8 7 6 11 9 5 4 5 9 13 9 13 12 12 14 12 13 13 13 12 13 14 16 15 15 11 10 11 12 14 14 15 13 13 13 13 13 14 15 16 16
5 3 5 4 2 8 9 8 8 10 8 5 5 6 5 6 10 7 14 13 12 12 11 12 13 14 14 12 15 16 16 17 16 12 9 12 14 15 15 15 14 14 14 15 15 15 15 14 13
1 2 5 2 12 8 11 8 7 7 6 4 8 10 11 10 7 13 16 14 13 13 10 9 9 11 14 16 17 17 18 18 16 15 9 13 15 15 15 14 14 14 15 15 14 13 13 12 12
1 3 3 3 11 10 10 9 3 5 7 8 6 10 14 12 18 19 16 13 12 13 11 11 11 9 17 18 18 15 17 17 16 11 11 14 16 15 14 14 13 14 15 13 12 14 12 12 11
4 3 4 3 14 8 8 6 5 10 12 14 20 19 13 16 18 17 15 14 14 15 13 13 9 10 20 18 11 20 17 15 15 11 10 12 14 13 13 13 13 14 14 12 13 12 12 11 11
6 4 4 4 12 10 7 6 8 11 13 10 10 13 15 16 16 16 15 14 14 17 17 17 16 20 23 23 21 16 14 13 13 12 12 13 12 13 13 13 14 13 12 11 11 10 10 10 11
3 4 6 6 9 11 9 9 9 10 11 12 5 7 16 18 17 15 15 16 16 14 13 14 11 13 17 21 18 16 11 13 12 13 9 11 12 13 13 12 14 12 10 9 9 9 9 10 9
2 3 6 6 9 8 10 12 6 3 13 3 2 9 20 20 17 16 15 15 14 13 13 13 14 12 13 11 12 9 7 8 9 8 11 13 8 10 9 12 13 12 11 9 7 8 8 8 7
3 2 3 4 4 6 7 10 6 9 9 5 11 15 21 19 17 16 15 15 14 13 12 12 12 13 10 8 10 9 8 7 8 8 9 9 10 11 9 12 13 12 12 10 9 8 7 7 2
3 3 7 9 8 2 7 7 3 11 5 6 15 20 19 17 15 13 13 14 14 14 11 10 13 14 10 10 9 6 7 6 6 8 9 9 8 8 9 9 9 8 11 6 6 4 5 1 2
6 6 5 5 7 3 6 6 3 3 9 9 14 17 16 15 14 13 13 14 14 14 13 12 9 14 11 8 9 10 9 9 8 8 9 8 7 9 10 9 8 7 5 5 4 2 2 2 1
9 5 8 5 4 5 8 7 5 7 6 14 15 16 15 14 12 12 12 12 13 13 13 12 11 11 11 11 10 11 9 9 7 7 9 7 8 8 8 8 6 5 4 3 3 2 2 2 3
10 9 9 4 5 4 6 8 6 10 10 15 15 14 13 12 12 12 12 12 12 12 12 12 11 11 11 11 14 11 10 9 8 7 7 9 7 7 7 6 4 3 3 3 2 1 2 1 1
13 10 9 6 3 1 2 7 5 7 11 14 15 13 11 10 10 10 10 11 12 11 11 11 11 11 13 14 12 9 8 7 7 6 9 9 7 7 8 5 4 3 4 4 1 2 3 3 3
2 5 3 8 9 0 3 2 0 8 12 14 15 13 12 10 9 9 9 10 11 12 12 11 11 12 12 12 10 8 7 6 6 5 5 6 7 8 5 3 2 1 1 1 1 2 2 4 3
4 5 4 6 7 2 2 5 11 6 11 14 15 14 13 12 10 9 8 10 10 12 12 12 12 12 12 14 8 8 7 7 5 5 5 4 5 7 5 3 1 1 1 1 1 2 3 4 3
7 7 2 5 8 8 9 9 12 9 8 11 14 14 13 12 12 12 11 9 10 11 12 13 12 12 12 11 13 8 8 6 5 4 4 4 3 6 5 2 1 2 2 2 2 0 3 4 6
5 5 5 5 8 6 7 4 4 5 6 11 13 14 14 13 11 11 12 12 11 11 12 14 15 14 13 11 11 9 8 7 5 5 3 3 5 5 5 3 2 2 2 4 3 3 5 4 8
6 4 9 5 7 7 5 7 5 10 8 10 11 13 13 13 12 12 12 14 14 13 13 14 15 17 17 13 11 10 8 8 7 6 5 4 5 5 5 4 4 2 3 6 7 6 4 6 8
6 4 4 5 7 4 4 8 9 13 17 16 16 14 13 15 14 14 15 15 16 15 15 14 15 17 17 13 13 14 9 9 7 7 7 6 5 5 4 3 5 6 2 2 5 3 4 3 6
7 3 3 8 8 3 5 2 7 11 17 18 19 19 19 16 14 14 15 16 18 17 15 14 15 18 17 16 12 12 11 9 8 6 6 7 6 6 4 2 1 7 5 4 2 1 0 2 4
2 2 6 7 4 6 9 6 6 6 12 15 20 20 17 18 15 16 16 15 16 17 17 16 16 16 18 19 16 14 13 10 9 8 8 8 6 6 4 2 1 4 4 4 2 0 1 3 2
7 6 4 6 6 10 8 7 8 5 3 2 6 17 20 19 17 15 16 15 16 18 18 18 18 16 18 17 19 18 13 12 12 9 8 7 7 6 7 4 3 3 3 3 3 3 3 2 4
8 12 6 4 6 2 7 5 5 6 4 1 1 2 7 15 18 15 17 19 19 20 20 20 20 19 18 16 17 19 17 14 9 10 9 9 8 7 8 8 7 5 4 3 3 5 5 4 3
11 9 7 3 5 3 5 4 4 2 6 3 2 2 3 6 15 18 16 20 20 21 21 21 20 20 20 19 18 18 19 14 11 11 12 10 9 8 10 10 9 8 7 4 4 2 3 7 5
8 10 6 8 5 8 3 2 10 6 7 6 2 1 1 1 3 8 16 18 20 21 22 22 21 20 21 20 20 20 18 17 13 12 11 11 12 11 10 11 10 9 9 9 8 7 4 7 6
9 3 7 7 4 5 6 4 5 2 4 5 1 1 0 1 1 3 8 16 20 20 21 20 20 20 20 19 18 19 19 19 17 14 15 13 11 12 12 11 11 9 10 9 10 8 8 8 7
7 10 8 8 5 8 6 2 6 1 4 4 4 3 3 2 4 5 4 11 15 18 20 20 19 19 19 19 20 19 18 19 19 18 17 16 15 15 12 12 12 11 9 10 11 10 8 9 9
3 9 7 8 6 3 7 8 6 3 3 3 6 4 1 4 4 4 2 6 11 13 15 18 18 19 19 19 19 20 19 18 18 19 18 17 17 16 16 13 13 12 10 10 10 9 9 9 8
Wind_Direction
93 115 185 242 236 238 65 69 74 107 106 78 101 6 73 25 4 50 132 143 142 146 147 147 149 149 134 133 136 127 122 117 125 119 133 131 127 122 120 121 117 124 127 128 124 117 108 109 106
187 186 249 266 261 117 79 33 38 41 98 124 102 105 67 73 56 114 116 135 140 141 133 131 157 147 147 136 138 130 123 113 108 115 129 132 132 126 123 124 119 118 117 118 119 112 108 106 100
181 225 261 269 22 55 76 71 84 104 109 144 110 62 40 79 109 110 136 134 134 128 132 148 152 154 142 135 134 127 120 120 115 112 126 135 133 128 122 124 121 117 117 117 114 109 107 104 96
201 269 255 245 88 61 84 83 101 115 106 104 116 87 89 92 113 135 130 131 134 134 132 142 153 150 146 142 129 124 121 116 117 106 129 132 127 126 127 125 123 124 125 120 114 115 108 100 85
238 245 242 134 92 89 79 83 33 87 90 121 134 105 92 96 121 123 122 126 130 126 130 126 120 140 167 144 136 129 128 120 112 112 127 125 127 129 130 127 130 129 124 119 118 112 103 89 75
226 264 263 154 108 120 94 71 76 94 104 106 111 112 95 123 124 124 120 119 122 125 120 111 112 101 163 161 162 134 122 120 118 117 111 126 127 130 132 126 132 132 128 118 117 107 96 85 81
285 247 243 143 126 125 105 82 92 112 121 117 122 109 127 138 134 129 122 120 122 130 116 109 106 93 128 134 128 125 119 110 119 120 119 133 134 139 132 132 132 130 127 123 118 105 96 91 87
261 269 200 169 151 117 118 99 116 113 95 126 127 147 153 150 142 138 131 120 121 117 120 122 111 100 97 115 119 119 121 112 119 108 130 123 125 125 119 125 130 132 137 133 121 113 104 102 95
268 219 192 171 139 125 132 127 102 108 139 93 32 144 149 151 146 142 141 142 139 137 133 119 112 105 114 111 119 126 115 116 128 142 131 93 122 114 112 148 129 135 137 135 131 117 115 108 88
287 150 89 67 86 115 128 140 123 146 144 99 118 125 146 150 154 155 154 153 152 148 148 159 143 145 136 143 146 153 152 164 147 143 144 134 142 148 137 124 118 115 113 112 113 111 110 88 85
41 99 110 77 88 181 125 144 85 148 135 123 143 144 151 155 157 158 155 157 157 155 157 161 159 143 159 166 152 136 153 145 165 149 133 150 129 122 124 119 109 107 109 102 90 88 69 164 132
102 81 86 102 73 100 131 119 162 159 40 129 144 153 156 160 160 158 154 156 163 157 163 155 170 147 160 160 147 159 154 153 152 162 139 137 128 130 134 133 123 110 114 123 113 116 132 54 0
105 151 96 117 68 73 154 159 94 136 87 134 139 153 164 166 161 153 156 163 165 162 165 162 164 161 163 157 158 151 154 142 148 134 141 132 135 143 126 131 117 123 99 125 111 99 97 47 32
117 127 139 125 45 63 140 127 188 124 131 141 149 154 162 168 167 162 162 167 173 170 166 167 162 166 164 165 155 156 151 150 136 138 144 141 137 147 130 111 110 86 112 142 126 125 105 11 24
128 121 129 107 359 352 193 125 93 145 150 153 163 161 162 166 167 173 173 172 174 175 174 174 167 167 167 164 153 156 149 149 140 141 138 144 140 155 126 117 92 92 140 155 38 354 314 311 312
150 154 171 145 181 270 243 51 343 182 173 170 171 174 178 174 172 177 178 176 179 179 177 173 167 171 170 173 165 168 173 154 151 148 150 149 152 165 142 114 93 117 100 70 342 351 325 327 321
182 62 91 144 201 153 137 198 226 183 195 187 180 181 188 185 187 185 181 182 185 186 184 178 175 171 173 182 176 174 186 170 170 155 153 166 161 161 167 176 320 20 321 356 7 327 28 355 333
73 78 80 116 171 209 178 177 140 167 193 207 188 189 195 193 198 191 188 184 187 195 189 187 181 181 179 187 187 185 189 185 182 182 198 188 177 181 182 205 296 276 301 281 321 353 358 352 333
324 7 68 90 152 182 217 192 229 197 206 208 196 201 202 208 192 197 196 197 192 197 194 193 195 195 188 185 190 194 186 196 188 191 202 194 203 202 186 195 281 246 226 225 246 276 319 324 333
298 307 94 102 143 194 186 229 213 152 228 228 225 213 211 205 208 209 208 204 202 203 200 204 200 209 206 202 198 194 198 200 200 205 214 204 203 201 209 242 235 232 242 258 233 248 300 321 335
242 311 127 91 157 191 249 225 202 199 204 237 235 242 224 225 219 209 216 212 208 206 205 208 211 208 208 202 199 204 204 199 210 211 224 232 224 214 226 271 250 232 309 243 223 255 299 319 338
253 12 171 152 212 98 228 152 166 183 202 222 231 232 238 229 223 218 213 214 210 205 204 208 215 210 208 206 198 197 198 206 209 198 204 206 215 216 250 304 313 206 196 199 231 257 248 337 328
341 172 171 196 222 264 158 254 110 177 208 225 232 233 236 231 230 217 215 213 212 203 202 200 207 212 200 216 205 213 198 221 210 202 209 196 223 223 226 209 130 158 166 198 191 58 320 331 358
131 147 155 200 230 232 90 301 147 152 236 137 216 231 239 240 230 228 220 214 209 202 199 199 207 213 210 217 223 219 210 204 208 215 209 211 222 227 220 214 208 188 193 217 248 266 299 265 293
214 215 203 176 236 163 84 259 325 122 178 198 311 235 239 232 229 231 225 218 207 201 201 199 203 214 219 212 225 220 219 219 219 211 202 212 217 214 229 222 218 226 238 259 235 272 262 293 280
222 294 298 267 268 112 132 240 100 117 160 180 214 297 279 236 225 232 225 216 214 208 206 202 204 209 219 220 220 221 225 225 226 225 215 222 222 223 219 220 221 230 231 244 271 290 265 272 288
158 233 0 291 223 265 149 190 224 177 196 197 233 234 277 299 266 238 235 221 217 212 212 208 206 211 210 215 221 225 225 228 221 223 228 231 232 224 227 225 219 227 240 249 252 264 289 282 289
280 108 214 203 252 250 137 271 291 203 208 193 196 128 125 263 338 320 248 227 219 218 215 216 213 216 215 211 217 223 225 228 227 231 236 229 227 230 230 231 225 230 241 251 258 249 276 271 282
175 214 234 305 312 307 289 329 65 334 172 149 121 87 68 9 305 315 290 217 213 217 213 217 219 216 216 217 218 218 221 223 228 231 237 240 243 241 244 244 243 245 257 256 258 261 260 272 267
272 283 251 250 190 214 303 293 87 144 161 161 145 146 127 17 6 356 15 192 204 207 217 217 221 221 221 222 221 224 225 224 229 231 233 237 240 241 246 252 245 250 247 252 268 268 257 260 264
Height
1516 1518 1519 1519 1514 1499 1503 1509 1502 1508 1509 1516 1519 1519 1521 1525 1524 1536 1539 1540 1543 1545 1545 1548 1549 1550 1551 1553 1553 1555 1555 1555 1556 1558 1559 1560 1559 1560 1560 1560 1561 1562 1563 1564 1565 1567 1567 1568 1569
1521 1519 1520 1516 1506 1504 1510 1505 1509 1512 1517 1519 1522 1523 1524 1530 1533 1536 1539 1542 1544 1546 1548 1549 1550 1551 1553 1554 1555 1555 1557 1558 1558 1559 1561 1562 1562 1561 1562 1562 1563 1564 1565 1566 1567 1568 1569 1570 1572
1520 1519 1518 1505 1498 1512 1515 1510 1515 1519 1521 1520 1523 1526 1527 1534 1537 1538 1540 1543 1545 1547 1550 1549 1551 1553 1555 1556 1557 1557 1559 1560 1560 1562 1563 1564 1564 1564 1564 1564 1565 1566 1567 1568 1569 1570 1572 1573 1574
1521 1521 1517 1502 1507 1511 1509 1513 1518 1521 1523 1523 1524 1528 1535 1537 1538 1540 1543 1545 1547 1550 1551 1551 1552 1553 1555 1558 1558 1560 1561 1562 1563 1563 1564 1567 1566 1567 1566 1566 1567 1568 1569 1571 1572 1573 1575 1576 1577
1521 1519 1508 1504 1511 1511 1512 1516 1518 1519 1522 1524 1524 1530 1536 1540 1540 1543 1545 1548 1549 1552 1552 1553 1553 1554 1556 1559 1560 1561 1563 1564 1564 1564 1567 1568 1566 1568 1568 1569 1570 1570 1572 1573 1574 1576 1577 1578 1578
1517 1515 1511 1506 1513 1519 1515 1519 1520 1521 1526 1528 1528 1532 1540 1544 1544 1547 1548 1549 1552 1553 1554 1555 1555 1554 1554 1559 1562 1563 1565 1566 1566 1566 1567 1568 1571 1570 1571 1572 1572 1573 1574 1576 1577 1578 1579 1579 1579
1515 1510 1506 1503 1513 1516 1518 1521 1521 1522 1526 1529 1531 1533 1543 1546 1548 1549 1551 1552 1554 1554 1555 1556 1557 1558 1557 1561 1564 1567 1567 1567 1568 1568 1573 1572 1573 1574 1574 1574 1574 1575 1577 1578 1579 1580 1580 1581 1581
1517 1513 1509 1504 1512 1519 1519 1522 1525 1524 1528 1532 1532 1534 1541 1546 1549 1551 1553 1555 1557 1558 1560 1559 1560 1560 1563 1566 1567 1568 1570 1569 1571 1571 1574 1575 1576 1576 1576 1577 1576 1577 1578 1580 1580 1581 1582 1582 1583
1517 1514 1517 1508 1511 1519 1520 1522 1527 1529 1530 1532 1534 1534 1540 1546 1549 1552 1554 1557 1559 1561 1562 1562 1560 1561 1565 1567 1569 1570 1572 1572 1574 1576 1577 1578 1582 1581 1580 1578 1578 1579 1580 1581 1582 1583 1583 1584 1584
1514 1514 1522 1519 1517 1519 1521 1522 1525 1528 1529 1533 1535 1537 1542 1547 1550 1552 1554 1557 1559 1562 1564 1565 1563 1566 1567 1569 1571 1572 1574 1576 1577 1580 1580 1583 1583 1582 1583 1580 1580 1581 1583 1583 1584 1585 1585 1586 1589
1516 1518 1524 1524 1524 1524 1521 1524 1526 1525 1525 1531 1535 1540 1544 1548 1550 1552 1554 1557 1559 1562 1564 1565 1565 1568 1571 1570 1571 1574 1575 1579 1579 1579 1581 1582 1583 1584 1585 1584 1584 1586 1585 1588 1587 1587 1588 1589 1589
1523 1524 1526 1527 1526 1525 1523 1525 1526 1525 1529 1531 1536 1541 1545 1548 1550 1552 1555 1557 1559 1561 1564 1567 1566 1569 1573 1574 1575 1577 1579 1580 1581 1581 1580 1581 1584 1583 1585 1586 1585 1587 1589 1588 1589 1591 1589 1589 1589
1520 1526 1527 1528 1527 1525 1525 1524 1526 1528 1532 1533 1538 1542 1545 1548 1551 1553 1555 1558 1561 1562 1564 1566 1568 1570 1572 1573 1575 1578 1579 1581 1581 1581 1580 1583 1585 1585 1586 1585 1587 1589 1590 1590 1590 1590 1591 1590 1591
1520 1524 1528 1529 1528 1526 1523 1525 1527 1530 1534 1536 1539 1542 1545 1548 1551 1554 1556 1558 1561 1563 1565 1566 1568 1569 1571 1574 1575 1578 1579 1580 1582 1583 1583 1582 1585 1586 1586 1586 1589 1590 1590 1590 1590 1590 1591 1591 1592
1522 1524 1525 1527 1528 1528 1528 1528 1527 1531 1534 1536 1539 1543 1546 1549 1552 1554 1556 1559 1561 1563 1565 1566 1568 1569 1570 1573 1575 1577 1579 1581 1583 1584 1583 1584 1586 1585 1585 1588 1590 1590 1589 1590 1591 1591 1591 1592 1592
1518 1523 1525 1527 1529 1527 1526 1541 1531 1531 1532 1534 1538 1542 1546 1548 1551 1554 1556 1558 1561 1562 1564 1566 1568 1570 1571 1574 1575 1578 1579 1581 1583 1584 1585 1585 1585 1585 1587 1589 1590 1590 1590 1591 1592 1592 1592 1591 1592
1512 1521 1521 1529 1528 1525 1529 1540 1529 1532 1530 1530 1535 1540 1544 1547 1550 1552 1555 1558 1560 1561 1563 1565 1567 1569 1571 1572 1576 1578 1579 1581 1583 1584 1585 1584 1584 1585 1587 1588 1589 1589 1590 1591 1591 1592 1591 1591 1591
1511 1512 1517 1522 1525 1524 1529 1523 1525 1529 1530 1529 1532 1536 1540 1543 1546 1550 1553 1556 1558 1560 1562 1565 1566 1569 1570 1572 1574 1578 1580 1581 1583 1584 1585 1584 1585 1585 1587 1588 1589 1589 1589 1591 1591 1590 1590 1590 1590
1503 1507 1514 1517 1520 1522 1523 1519 1522 1526 1531 1531 1531 1533 1536 1540 1543 1547 1551 1554 1556 1558 1560 1562 1565 1567 1569 1572 1575 1578 1580 1581 1582 1584 1583 1583 1584 1585 1586 1588 1588 1588 1588 1589 1589 1590 1590 1591 1590
1503 1506 1511 1518 1519 1521 1520 1520 1520 1528 1530 1532 1531 1531 1534 1536 1540 1544 1548 1551 1553 1555 1558 1559 1562 1564 1567 1570 1573 1576 1579 1580 1582 1582 1582 1583 1584 1585 1586 1586 1586 1586 1587 1587 1588 1588 1590 1590 1589
1499 1503 1509 1511 1516 1517 1517 1517 1518 1520 1524 1527 1531 1531 1532 1534 1536 1540 1544 1547 1550 1552 1554 1557 1559 1562 1565 1568 1570 1573 1576 1578 1579 1580 1582 1582 1583 1584 1584 1584 1584 1585 1585 1587 1587 1588 1589 1590 1590
1502 1498 1503 1509 1509 1512 1513 1531 1511 1514 1520 1522 1525 1528 1528 1530 1533 1536 1539 1543 1546 1550 1552 1554 1557 1559 1563 1565 1569 1572 1575 1577 1578 1579 1581 1582 1582 1583 1583 1583 1582 1583 1585 1586 1587 1588 1588 1589 1591
1498 1500 1501 1503 1504 1508 1510 1509 1512 1510 1516 1516 1518 1521 1523 1526 1528 1532 1535 1539 1543 1547 1549 1552 1554 1557 1561 1563 1566 1569 1572 1575 1577 1578 1578 1580 1580 1581 1581 1582 1582 1583 1585 1586 1586 1587 1587 1589 1590
1500 1502 1505 1503 1500 1512 1506 1510 1501 1504 1506 1508 1512 1516 1519 1522 1525 1528 1532 1536 1540 1544 1547 1550 1551 1555 1558 1561 1565 1567 1570 1573 1574 1576 1577 1579 1580 1580 1580 1581 1582 1583 1584 1585 1586 1586 1586 1588 1588
1498 1498 1514 1528 1520 1513 1506 1514 1498 1500 1506 1509 1511 1514 1516 1519 1521 1525 1528 1532 1536 1539 1543 1546 1548 1551 1555 1558 1561 1564 1567 1570 1571 1573 1575 1577 1578 1579 1579 1580 1581 1582 1583 1584 1585 1585 1586 1587 1587
1495 1489 1501 1525 1515 1505 1507 1515 1500 1500 1506 1510 1512 1514 1515 1516 1518 1521 1524 1528 1532 1536 1539 1542 1545 1548 1551 1554 1558 1561 1564 1567 1569 1572 1574 1575 1576 1578 1578 1578 1579 1580 1581 1583 1584 1585 1586 1586 1587
1494 1502 1488 1498 1498 1509 1493 1497 1493 1500 1504 1507 1509 1513 1514 1515 1516 1518 1520 1524 1528 1531 1535 1537 1540 1544 1548 1551 1554 1557 1560 1563 1567 1568 1570 1572 1574 1575 1575 1576 1577 1579 1580 1581 1582 1582 1583 1584 1585
1491 1488 1500 1495 1518 1519 1499 1506 1502 1497 1502 1504 1508 1510 1514 1516 1517 1517 1518 1520 1524 1527 1531 1535 1538 1540 1544 1548 1551 1554 1556 1559 1561 1564 1566 1569 1571 1571 1572 1574 1576 1577 1578 1579 1580 1581 1581 1582 1583
1495 1492 1492 1488 1496 1508 1511 1499 1490 1498 1500 1502 1508 1511 1514 1515 1515 1516 1515 1516 1520 1524 1528 1531 1534 1537 1540 1543 1547 1550 1553 1555 1557 1560 1562 1564 1567 1568 1569 1571 1573 1574 1575 1576 1577 1579 1579 1579 1580
1489 1485 1482 1494 1500 1495 1505 1503 1491 1498 1501 1505 1508 1511 1513 1514 1514 1514 1514 1515 1517 1521 1524 1528 1531 1533 1536 1540 1542 1544 1548 1551 1555 1556 1558 1560 1562 1564 1566 1567 1570 1571 1574 1575 1575 1576 1577 1578 1578